OBJECT AE, 63238

Orbit data source: Space-Track

You're viewing an Uncataloged Satellite

Recently launched and/or uncataloged satellites may have evolving metadata. Metadata may include but not limited to: Owner, Maufacturer, Bus, Motor, and Mission.

OBJECT AE, 63238 is a satellite in SSO that was launched on Sat, 15 Mar 2025 UTC via an FALCON 9 launch vehicle from the Air Force Western Test Range (AFWTR). Unknown objects in Earth's orbit typically refer to objects detected orbiting the Earth but have not yet been identified or cataloged. These objects could be anything from previously untracked satellites, spent rocket stages, debris from satellite collisions, or even natural meteoroids temporarily captured by Earth's gravity.

Loading next visibility...
Identifier
63238, 2025-052AE
Orbit
SSO
Country
Flag of TBDTBD
Related business
None
Manufacturer
Unknown
Mission
Operational Defense Calibration
Bus & Motor
Unknown
Mass
Unknown
Launch date (UTC)
2025-03-15 (7 months ago)
Launch vehicle
FALCON 9
Launch site
Air Force Western Test Range (AFWTR)
Object type
Unknown
Shape & HBR
Box, 0.1 m
Radar Cross Section
0.080 m², Small (<0.1 m²)

Expand to show TLE details & history
Last TLE update: 12 hours ago

TLE from 12 hours ago
0 OBJECT AE
1 63238U 25052AE  25299.66949475  .00017304  00000-0  73981-3 0  9999
2 63238  97.4158 191.4853 0005143 242.8392 117.2320 15.22895759 34378
Epoch: 2025-10-26T16:04Z
TLE epoch observation values (Epoch: 2025-10-26T16:04:04.346Z)
Latitude
-0.00008°
Longitude
-84.81517°
Altitude
501.825 km
Speed
7.613 km/s
True Right ascension
12h 45m 56s
True Declination
0° 00' 00"
Sunlit
Object was in daylight at epoch
Visualization orbit readout
Latitude
Unknown
Longitude
Unknown
Altitude
Unknown
Speed
Unknown
Apparent Right ascension
Unknown
Apparent Declination
Unknown
Sunlit
N/A
Visualization observer readout
Local Sidereal Time
23:20:47
Azimuth
Unknown
Elevation
Unknown
Doppler factor
Unknown
Orbital elements
Apogee altitude
497.608 km
Perigee altitude
490.539 km
Semi-major axis
6,872.211 km
Eccentricity
0.00051
Inclination
97.4158°
RAAN
191.4853°
Arg. of periapsis
242.8392°
True anomaly
117.28439°
Mean anomaly
117.232°
Eccentric anomaly
117.25819°
Mean motion
3.80977 °/min
Orbital period
94.49 mins
BSTAR
0.00073981
Loading maneuver chart data...
Computing Atmospheric mass density...
Loading historical data...
Loading historical data...
Loading historical data...
Loading historical data...
Loading historical data...
Loading historical data...
Loading historical data...

Documentation

Showing up to 5 results
|